Погода в Виктория-Фолс

Зимбабве     17°55′49″S   25°49′59″E
темп.,
°C
ветер,
м/с
пор.,
м/с
влажн.,
%
обл.,
%
осадки,
мм/ч
давл.,
гПа
погр.,
м
20 сентября, пн
пн2023:00+21всв23340 0.0 101452
02:00+20в23375 0.0 101241
05:00+16вюв24636 0.0 101585
08:00+21всв36447 0.0 1017354
11:00+32всв35185 0.0 10141286
14:00+35в56104 0.0 10093193
17:00+33вюв55133 0.0 10091677
20:00+24всв22260 0.0 101313
21 сентября, вт
вт2123:00+22всв22290 0.0 101418
02:00+21вюв00300 0.0 101211
05:00+18вюв24410 0.0 101456
08:00+24всв36280 0.0 1015292
11:00+34всв47124 0.0 10131518
14:00+37в5695 0.0 10093313
17:00+34вюв46115 0.0 10092136
20:00+26всв11185 0.0 101211
22 сентября, ср
ср2223:00+23ссв11215 0.0 101211
02:00+21вюв3926100 0.0 1014171
05:00+18в2332100 0.0 101651
08:00+24в61321100 0.0 1017732
11:00+32в6812100 0.0 10151619
14:00+35в6610100 0.0 10112457
17:00+33вюв6611100 0.0 10112197
20:00+24всв2422100 0.0 101449
23 сентября, чт
чт2323:00+22всв222756 0.0 101512
02:00+19вюв3113438 0.0 1016258
05:00+18в412495 0.0 1017365
08:00+21в611465 0.0 1018658
11:00+30всв56258 0.0 10161361
14:00+34в461448 0.0 10113178
17:00+31вюв651745 0.0 10111941
20:00+23в23325 0.0 101432
24 сентября, пт
пт2423:00+21в11350 0.0 101411
02:00+20в11350 0.0 101311
05:00+17юв37430 0.0 1015116
08:00+23в35400 0.0 1016325
11:00+32всв35190 0.0 10131722
14:00+36вюв69120 0.0 10093162
17:00+34всв35160 0.0 10092224
20:00+25всв22280 0.0 101214